Year,Month,Day,Hour,Minute,Value (Times are PST for temperature in C)
2013,04,02,00,00,7.00
2013,04,02,00,01,7.00
2013,04,02,00,02,6.90
2013,04,02,00,03,6.90
2013,04,02,00,04,6.90
2013,04,02,00,05,6.90
2013,04,02,00,06,6.80
2013,04,02,00,07,6.80
2013,04,02,00,08,6.80
2013,04,02,00,09,6.80
2013,04,02,00,10,6.70
2013,04,02,00,11,6.70
2013,04,02,00,12,6.70
2013,04,02,00,13,6.70
2013,04,02,00,14,6.70
2013,04,02,00,15,6.60
2013,04,02,00,16,6.60
2013,04,02,00,17,6.60
2013,04,02,00,18,6.60
2013,04,02,00,19,6.50
2013,04,02,00,20,6.50
2013,04,02,00,21,6.50
2013,04,02,00,22,6.40
2013,04,02,00,23,6.40
2013,04,02,00,24,6.40
2013,04,02,00,25,6.30
2013,04,02,00,26,6.30
2013,04,02,00,27,6.30
2013,04,02,00,28,6.30
2013,04,02,00,29,6.30
2013,04,02,00,30,6.30
2013,04,02,00,31,6.20
2013,04,02,00,32,6.20
2013,04,02,00,33,6.20
2013,04,02,00,34,6.20
2013,04,02,00,35,6.20
2013,04,02,00,36,6.20
2013,04,02,00,37,6.20
2013,04,02,00,38,6.20
2013,04,02,00,39,6.20
2013,04,02,00,40,6.20
2013,04,02,00,41,6.10
2013,04,02,00,42,6.10
2013,04,02,00,43,6.10
2013,04,02,00,44,6.10
2013,04,02,00,45,6.00
2013,04,02,00,46,6.00
2013,04,02,00,47,6.00
2013,04,02,00,48,6.00
2013,04,02,00,49,6.00
2013,04,02,00,50,6.00
2013,04,02,00,51,6.00
2013,04,02,00,52,6.00
2013,04,02,00,53,6.00
2013,04,02,00,54,5.90
2013,04,02,00,55,5.90
2013,04,02,00,56,5.90
2013,04,02,00,57,5.90
2013,04,02,00,58,5.90
2013,04,02,00,59,5.90
2013,04,02,01,00,5.90
2013,04,02,01,01,5.90
2013,04,02,01,02,5.90
2013,04,02,01,03,5.80
2013,04,02,01,04,5.90
2013,04,02,01,05,5.90
2013,04,02,01,06,5.90
2013,04,02,01,07,5.80
2013,04,02,01,08,5.80
2013,04,02,01,09,5.80
2013,04,02,01,10,5.80
2013,04,02,01,11,5.80
2013,04,02,01,12,5.80
2013,04,02,01,13,5.70
2013,04,02,01,14,5.70
2013,04,02,01,15,5.70
2013,04,02,01,16,5.70
2013,04,02,01,17,5.70
2013,04,02,01,18,5.70
2013,04,02,01,19,5.70
2013,04,02,01,20,5.70
2013,04,02,01,21,5.70
2013,04,02,01,22,5.70
2013,04,02,01,23,5.70
2013,04,02,01,24,5.70
2013,04,02,01,25,5.70
2013,04,02,01,26,5.70
2013,04,02,01,27,5.60
2013,04,02,01,28,5.60
2013,04,02,01,29,5.60
2013,04,02,01,30,5.60
2013,04,02,01,31,5.60
2013,04,02,01,32,5.60
2013,04,02,01,33,5.60
2013,04,02,01,34,5.60
2013,04,02,01,35,5.60
2013,04,02,01,36,5.60
2013,04,02,01,37,5.60
2013,04,02,01,38,5.60
2013,04,02,01,39,5.60
2013,04,02,01,40,5.60
2013,04,02,01,41,5.60
2013,04,02,01,42,5.60
2013,04,02,01,43,5.60
2013,04,02,01,44,5.60
2013,04,02,01,45,5.60
2013,04,02,01,46,5.60
2013,04,02,01,47,5.60
2013,04,02,01,48,5.50
2013,04,02,01,49,5.50
2013,04,02,01,50,5.50
2013,04,02,01,51,5.50
2013,04,02,01,52,5.50
2013,04,02,01,53,5.50
2013,04,02,01,54,5.50
2013,04,02,01,55,5.60
2013,04,02,01,56,5.60
2013,04,02,01,57,5.60
2013,04,02,01,58,5.50
2013,04,02,01,59,5.50
2013,04,02,02,00,5.50
2013,04,02,02,01,5.50
2013,04,02,02,02,5.40
2013,04,02,02,03,5.40
2013,04,02,02,04,5.40
2013,04,02,02,05,5.40
2013,04,02,02,06,5.40
2013,04,02,02,07,5.40
2013,04,02,02,08,5.40
2013,04,02,02,09,5.40
2013,04,02,02,10,5.30
2013,04,02,02,11,5.30
2013,04,02,02,12,5.30
2013,04,02,02,13,5.30
2013,04,02,02,14,5.30
2013,04,02,02,15,5.30
2013,04,02,02,16,5.30
2013,04,02,02,17,5.30
2013,04,02,02,18,5.30
2013,04,02,02,19,5.30
2013,04,02,02,20,5.30
2013,04,02,02,21,5.30
2013,04,02,02,22,5.30
2013,04,02,02,23,5.30
2013,04,02,02,24,5.30
2013,04,02,02,25,5.30
2013,04,02,02,26,5.30
2013,04,02,02,27,5.30
2013,04,02,02,28,5.30
2013,04,02,02,29,5.30
2013,04,02,02,30,5.20
2013,04,02,02,31,5.20
2013,04,02,02,32,5.20
2013,04,02,02,33,5.20
2013,04,02,02,34,5.20
2013,04,02,02,35,5.20
2013,04,02,02,36,5.20
2013,04,02,02,37,5.20
2013,04,02,02,38,5.20
2013,04,02,02,39,5.20
2013,04,02,02,40,5.10
2013,04,02,02,41,5.10
2013,04,02,02,42,5.10
2013,04,02,02,43,5.10
2013,04,02,02,44,5.10
2013,04,02,02,45,5.10
2013,04,02,02,46,5.10
2013,04,02,02,47,5.10
2013,04,02,02,48,5.10
2013,04,02,02,49,5.10
2013,04,02,02,50,5.10
2013,04,02,02,51,5.10
2013,04,02,02,52,5.10
2013,04,02,02,53,5.10
2013,04,02,02,54,5.10
2013,04,02,02,55,5.10
2013,04,02,02,56,5.10
2013,04,02,02,57,5.10
2013,04,02,02,58,5.10
2013,04,02,02,59,5.10
2013,04,02,03,00,5.10
2013,04,02,03,01,5.10
2013,04,02,03,02,5.10
2013,04,02,03,03,5.10
2013,04,02,03,04,5.20
2013,04,02,03,05,5.20
2013,04,02,03,06,5.20
2013,04,02,03,07,5.20
2013,04,02,03,08,5.20
2013,04,02,03,09,5.30
2013,04,02,03,10,5.50
2013,04,02,03,11,5.70
2013,04,02,03,12,5.90
2013,04,02,03,13,6.00
2013,04,02,03,14,6.20
2013,04,02,03,15,6.30
2013,04,02,03,16,6.50
2013,04,02,03,17,6.60
2013,04,02,03,18,6.80
2013,04,02,03,19,6.80
2013,04,02,03,20,6.90
2013,04,02,03,21,7.00
2013,04,02,03,22,7.10
2013,04,02,03,23,7.20
2013,04,02,03,24,7.30
2013,04,02,03,25,7.40
2013,04,02,03,26,7.40
2013,04,02,03,27,7.50
2013,04,02,03,28,7.50
2013,04,02,03,29,7.50
2013,04,02,03,30,7.60
2013,04,02,03,31,7.60
2013,04,02,03,32,7.60
2013,04,02,03,33,7.60
2013,04,02,03,34,7.60
2013,04,02,03,35,7.60
2013,04,02,03,36,7.60
2013,04,02,03,37,7.60
2013,04,02,03,38,7.60
2013,04,02,03,39,7.60
2013,04,02,03,40,7.50
2013,04,02,03,41,7.50
2013,04,02,03,42,7.50
2013,04,02,03,43,7.50
2013,04,02,03,44,7.40
2013,04,02,03,45,7.40
2013,04,02,03,46,7.40
2013,04,02,03,47,7.40
2013,04,02,03,48,7.40
2013,04,02,03,49,7.40
2013,04,02,03,50,7.40
2013,04,02,03,51,7.50
2013,04,02,03,52,7.50
2013,04,02,03,53,7.50
2013,04,02,03,54,7.60
2013,04,02,03,55,7.60
2013,04,02,03,56,7.70
2013,04,02,03,57,7.70
2013,04,02,03,58,7.70
2013,04,02,03,59,7.70
2013,04,02,04,00,7.80
2013,04,02,04,01,7.80
2013,04,02,04,02,7.80
2013,04,02,04,03,7.80
2013,04,02,04,04,7.80
2013,04,02,04,05,7.80
2013,04,02,04,06,7.80
2013,04,02,04,07,7.80
2013,04,02,04,08,7.80
2013,04,02,04,09,7.80
2013,04,02,04,10,7.80
2013,04,02,04,11,7.70
2013,04,02,04,12,7.70
2013,04,02,04,13,7.70
2013,04,02,04,14,7.70
2013,04,02,04,15,7.70
2013,04,02,04,16,7.70
2013,04,02,04,17,7.60
2013,04,02,04,18,7.60
2013,04,02,04,19,7.60
2013,04,02,04,20,7.60
2013,04,02,04,21,7.50
2013,04,02,04,22,7.50
2013,04,02,04,23,7.50
2013,04,02,04,24,7.50
2013,04,02,04,25,7.40
2013,04,02,04,26,7.40
2013,04,02,04,27,7.40
2013,04,02,04,28,7.40
2013,04,02,04,29,7.40
2013,04,02,04,30,7.30
2013,04,02,04,31,7.30
2013,04,02,04,32,7.30
2013,04,02,04,33,7.30
2013,04,02,04,34,7.30
2013,04,02,04,35,7.30
2013,04,02,04,36,7.30
2013,04,02,04,37,7.30
2013,04,02,04,38,7.30
2013,04,02,04,39,7.40
2013,04,02,04,40,7.40
2013,04,02,04,41,7.50
2013,04,02,04,42,7.50
2013,04,02,04,43,7.50
2013,04,02,04,44,7.60
2013,04,02,04,45,7.60
2013,04,02,04,46,7.70
2013,04,02,04,47,7.70
2013,04,02,04,48,7.70
2013,04,02,04,49,7.70
2013,04,02,04,50,7.70
2013,04,02,04,51,7.80
2013,04,02,04,52,7.80
2013,04,02,04,53,7.80
2013,04,02,04,54,7.80
2013,04,02,04,55,7.80
2013,04,02,04,56,7.80
2013,04,02,04,57,7.80
2013,04,02,04,58,7.80
2013,04,02,04,59,7.80
2013,04,02,05,00,7.80
2013,04,02,05,01,7.80
2013,04,02,05,02,7.80
2013,04,02,05,03,7.80
2013,04,02,05,04,7.90
2013,04,02,05,05,7.90
2013,04,02,05,06,7.90
2013,04,02,05,07,7.90
2013,04,02,05,08,7.90
2013,04,02,05,09,7.90
2013,04,02,05,10,7.90
2013,04,02,05,11,8.00
2013,04,02,05,12,8.00
2013,04,02,05,13,8.00
2013,04,02,05,14,8.00
2013,04,02,05,15,8.00
2013,04,02,05,16,8.00
2013,04,02,05,17,8.00
2013,04,02,05,18,8.00
2013,04,02,05,19,8.00
2013,04,02,05,20,8.00
2013,04,02,05,21,8.00
2013,04,02,05,22,8.00
2013,04,02,05,23,8.00
2013,04,02,05,24,8.00
2013,04,02,05,25,8.00
2013,04,02,05,26,7.90
2013,04,02,05,27,7.90
2013,04,02,05,28,7.90
2013,04,02,05,29,7.90
2013,04,02,05,30,7.90
2013,04,02,05,31,7.90
2013,04,02,05,32,7.90
2013,04,02,05,33,7.90
2013,04,02,05,34,8.00
2013,04,02,05,35,8.00
2013,04,02,05,36,8.00
2013,04,02,05,37,8.00
2013,04,02,05,38,8.10
2013,04,02,05,39,8.10
2013,04,02,05,40,8.10
2013,04,02,05,41,8.10
2013,04,02,05,42,8.10
2013,04,02,05,43,8.10
2013,04,02,05,44,8.10
2013,04,02,05,45,8.10
2013,04,02,05,46,8.10
2013,04,02,05,47,8.10
2013,04,02,05,48,8.10
2013,04,02,05,49,8.10
2013,04,02,05,50,8.10
2013,04,02,05,51,8.10
2013,04,02,05,52,8.10
2013,04,02,05,53,8.10
2013,04,02,05,54,8.10
2013,04,02,05,55,8.10
2013,04,02,05,56,8.10
2013,04,02,05,57,8.10
2013,04,02,05,58,8.10
2013,04,02,05,59,8.10
2013,04,02,06,00,8.10
2013,04,02,06,01,8.10
2013,04,02,06,02,8.20
2013,04,02,06,03,8.20
2013,04,02,06,04,8.20
2013,04,02,06,05,8.20
2013,04,02,06,06,8.20
2013,04,02,06,07,8.20
2013,04,02,06,08,8.20
2013,04,02,06,09,8.20
2013,04,02,06,10,8.20
2013,04,02,06,11,8.20
2013,04,02,06,12,8.20
2013,04,02,06,13,8.20
2013,04,02,06,14,8.20
2013,04,02,06,15,8.20
2013,04,02,06,16,8.20
2013,04,02,06,17,8.20
2013,04,02,06,18,8.20
2013,04,02,06,19,8.20
2013,04,02,06,20,8.20
2013,04,02,06,21,8.20
2013,04,02,06,22,8.20
2013,04,02,06,23,8.20
2013,04,02,06,24,8.20
2013,04,02,06,25,8.20
2013,04,02,06,26,8.20
2013,04,02,06,27,8.20
2013,04,02,06,28,8.20
2013,04,02,06,29,8.10
2013,04,02,06,30,8.20
2013,04,02,06,31,8.10
2013,04,02,06,32,8.10
2013,04,02,06,33,8.10
2013,04,02,06,34,8.10
2013,04,02,06,35,8.10
2013,04,02,06,36,8.10
2013,04,02,06,37,8.10
2013,04,02,06,38,8.10
2013,04,02,06,39,8.10
2013,04,02,06,40,8.10
2013,04,02,06,41,8.10
2013,04,02,06,42,8.10
2013,04,02,06,43,8.10
2013,04,02,06,44,8.00
2013,04,02,06,45,8.00
2013,04,02,06,46,8.00
2013,04,02,06,47,8.00
2013,04,02,06,48,8.00
2013,04,02,06,49,8.00
2013,04,02,06,50,8.00
2013,04,02,06,51,8.00
2013,04,02,06,52,8.00
2013,04,02,06,53,8.00
2013,04,02,06,54,8.00
2013,04,02,06,55,8.00
2013,04,02,06,56,8.00
2013,04,02,06,57,8.00
2013,04,02,06,58,8.00
2013,04,02,06,59,8.00
2013,04,02,07,00,8.00
2013,04,02,07,01,8.00
2013,04,02,07,02,8.00
2013,04,02,07,03,8.00
2013,04,02,07,04,8.00
2013,04,02,07,05,8.00
2013,04,02,07,06,8.00
2013,04,02,07,07,8.00
2013,04,02,07,08,8.00
2013,04,02,07,09,8.00
2013,04,02,07,10,8.00
2013,04,02,07,11,8.00
2013,04,02,07,12,7.90
2013,04,02,07,13,7.90
2013,04,02,07,14,7.90
2013,04,02,07,15,7.90
2013,04,02,07,16,8.00
2013,04,02,07,17,7.90
2013,04,02,07,18,8.00
2013,04,02,07,19,8.00
2013,04,02,07,20,8.00
2013,04,02,07,21,8.00
2013,04,02,07,22,8.00
2013,04,02,07,23,8.00
2013,04,02,07,24,8.00
2013,04,02,07,25,8.00
2013,04,02,07,26,8.00
2013,04,02,07,27,8.00
2013,04,02,07,28,8.00
2013,04,02,07,29,8.00
2013,04,02,07,30,8.00
2013,04,02,07,31,8.00
2013,04,02,07,32,8.00
2013,04,02,07,33,8.00
2013,04,02,07,34,8.00
2013,04,02,07,35,8.00
2013,04,02,07,36,8.00
2013,04,02,07,37,8.00
2013,04,02,07,38,8.00
2013,04,02,07,39,8.00
2013,04,02,07,40,8.10
2013,04,02,07,41,8.10
2013,04,02,07,42,8.10
2013,04,02,07,43,8.10
2013,04,02,07,44,8.10
2013,04,02,07,45,8.10
2013,04,02,07,46,8.10
2013,04,02,07,47,8.10
2013,04,02,07,48,8.10
2013,04,02,07,49,8.10
2013,04,02,07,50,8.10
2013,04,02,07,51,8.10
2013,04,02,07,52,8.10
2013,04,02,07,53,8.20
2013,04,02,07,54,8.20
2013,04,02,07,55,8.20
2013,04,02,07,56,8.20
2013,04,02,07,57,8.20
2013,04,02,07,58,8.20
2013,04,02,07,59,8.20
2013,04,02,08,00,8.20
2013,04,02,08,01,8.20
2013,04,02,08,02,8.30
2013,04,02,08,03,8.30
2013,04,02,08,04,8.30
2013,04,02,08,05,8.30
2013,04,02,08,06,8.30
2013,04,02,08,07,8.30
2013,04,02,08,08,8.30
2013,04,02,08,09,8.30
2013,04,02,08,10,8.40
2013,04,02,08,11,8.40
2013,04,02,08,12,8.40
2013,04,02,08,13,8.40
2013,04,02,08,14,8.40
2013,04,02,08,15,8.40
2013,04,02,08,16,8.40
2013,04,02,08,17,8.40
2013,04,02,08,18,8.40
2013,04,02,08,19,8.50
2013,04,02,08,20,8.50
2013,04,02,08,21,8.50
2013,04,02,08,22,8.50
2013,04,02,08,23,8.50
2013,04,02,08,24,8.50
2013,04,02,08,25,8.60
2013,04,02,08,26,8.60
2013,04,02,08,27,8.60
2013,04,02,08,28,8.60
2013,04,02,08,29,8.60
2013,04,02,08,30,8.60
2013,04,02,08,31,8.70
2013,04,02,08,32,8.70
2013,04,02,08,33,8.70
2013,04,02,08,34,8.70
2013,04,02,08,35,8.80
2013,04,02,08,36,8.80
2013,04,02,08,37,8.80
2013,04,02,08,38,8.80
2013,04,02,08,39,8.90
2013,04,02,08,40,8.90
2013,04,02,08,41,8.90
2013,04,02,08,42,8.90
2013,04,02,08,43,8.90
2013,04,02,08,44,8.90
2013,04,02,08,45,8.90
2013,04,02,08,46,8.90
2013,04,02,08,47,9.00
2013,04,02,08,48,9.00
2013,04,02,08,49,9.00
2013,04,02,08,50,9.00
2013,04,02,08,51,9.00
2013,04,02,08,52,9.10
2013,04,02,08,53,9.10
2013,04,02,08,54,9.10
2013,04,02,08,55,9.10
2013,04,02,08,56,9.10
2013,04,02,08,57,9.10
2013,04,02,08,58,9.10
2013,04,02,08,59,9.20
2013,04,02,09,00,9.20
2013,04,02,09,01,9.20
2013,04,02,09,02,9.20
2013,04,02,09,03,9.20
2013,04,02,09,04,9.20
2013,04,02,09,05,9.20
2013,04,02,09,06,9.30
2013,04,02,09,07,9.30
2013,04,02,09,08,9.30
2013,04,02,09,09,9.40
2013,04,02,09,10,9.40
2013,04,02,09,11,9.50
2013,04,02,09,12,9.50
2013,04,02,09,13,9.60
2013,04,02,09,14,9.60
2013,04,02,09,15,9.60
2013,04,02,09,16,9.60
2013,04,02,09,17,9.60
2013,04,02,09,18,9.70
2013,04,02,09,19,9.70
2013,04,02,09,20,9.80
2013,04,02,09,21,9.80
2013,04,02,09,22,9.80
2013,04,02,09,23,9.90
2013,04,02,09,24,9.90
2013,04,02,09,25,9.90
2013,04,02,09,26,10.00
2013,04,02,09,27,10.00
2013,04,02,09,28,10.00
2013,04,02,09,29,10.00
2013,04,02,09,30,10.00
2013,04,02,09,31,9.90
2013,04,02,09,32,9.90
2013,04,02,09,33,9.90
2013,04,02,09,34,9.90
2013,04,02,09,35,9.90
2013,04,02,09,36,9.90
2013,04,02,09,37,9.90
2013,04,02,09,38,9.90
2013,04,02,09,39,9.90
2013,04,02,09,40,9.90
2013,04,02,09,41,9.90
2013,04,02,09,42,9.90
2013,04,02,09,43,9.90
2013,04,02,09,44,9.90
2013,04,02,09,45,9.90
2013,04,02,09,46,9.90
2013,04,02,09,47,9.90
2013,04,02,09,48,9.90
2013,04,02,09,49,9.90
2013,04,02,09,50,9.90
2013,04,02,09,51,9.80
2013,04,02,09,52,9.90
2013,04,02,09,53,9.90
2013,04,02,09,54,9.90
2013,04,02,09,55,9.90
2013,04,02,09,56,9.90
2013,04,02,09,57,9.90
2013,04,02,09,58,9.90
2013,04,02,09,59,9.90
2013,04,02,10,00,9.90
2013,04,02,10,01,9.90
2013,04,02,10,02,9.90
2013,04,02,10,03,9.90
2013,04,02,10,04,9.90
2013,04,02,10,05,9.90
2013,04,02,10,06,10.00
2013,04,02,10,07,10.00
2013,04,02,10,08,10.00
2013,04,02,10,09,10.10
2013,04,02,10,10,10.10
2013,04,02,10,11,10.10
2013,04,02,10,12,10.10
2013,04,02,10,13,10.10
2013,04,02,10,14,10.10
2013,04,02,10,15,10.10
2013,04,02,10,16,10.20
2013,04,02,10,17,10.20
2013,04,02,10,18,10.20
2013,04,02,10,19,10.20
2013,04,02,10,20,10.30
2013,04,02,10,21,10.30
2013,04,02,10,22,10.30
2013,04,02,10,23,10.40
2013,04,02,10,24,10.40
2013,04,02,10,25,10.40
2013,04,02,10,26,10.40
2013,04,02,10,27,10.40
2013,04,02,10,28,10.40
2013,04,02,10,29,10.50
2013,04,02,10,30,10.60
2013,04,02,10,31,10.70
2013,04,02,10,32,10.80
2013,04,02,10,33,10.90
2013,04,02,10,34,11.00
2013,04,02,10,35,11.00
2013,04,02,10,36,11.00
2013,04,02,10,37,11.00
2013,04,02,10,38,10.90
2013,04,02,10,39,10.90
2013,04,02,10,40,10.80
2013,04,02,10,41,10.80
2013,04,02,10,42,10.80
2013,04,02,10,43,10.80
2013,04,02,10,44,10.80
2013,04,02,10,45,10.80
2013,04,02,10,46,10.80
2013,04,02,10,47,10.70
2013,04,02,10,48,10.80
2013,04,02,10,49,10.80
2013,04,02,10,50,10.90
2013,04,02,10,51,11.00
2013,04,02,10,52,11.10
2013,04,02,10,53,11.20
2013,04,02,10,54,11.20
2013,04,02,10,55,11.30
2013,04,02,10,56,11.40
2013,04,02,10,57,11.40
2013,04,02,10,58,11.40
2013,04,02,10,59,11.50
2013,04,02,11,00,11.50
2013,04,02,11,01,11.40
2013,04,02,11,02,11.40
2013,04,02,11,03,11.30
2013,04,02,11,04,11.30
2013,04,02,11,05,11.30
2013,04,02,11,06,11.30
2013,04,02,11,07,11.30
2013,04,02,11,08,11.30
2013,04,02,11,09,11.30
2013,04,02,11,10,11.30
2013,04,02,11,11,11.20
2013,04,02,11,12,11.20
2013,04,02,11,13,11.20
2013,04,02,11,14,11.20
2013,04,02,11,15,11.20
2013,04,02,11,16,11.20
2013,04,02,11,17,11.20
2013,04,02,11,18,11.10
2013,04,02,11,19,11.10
2013,04,02,11,20,11.10
2013,04,02,11,21,11.10
2013,04,02,11,22,11.10
2013,04,02,11,23,11.10
2013,04,02,11,24,11.00
2013,04,02,11,25,11.00
2013,04,02,11,26,11.00
2013,04,02,11,27,11.00
2013,04,02,11,28,11.00
2013,04,02,11,29,11.10
2013,04,02,11,30,11.10
2013,04,02,11,31,11.10
2013,04,02,11,32,11.10
2013,04,02,11,33,11.00
2013,04,02,11,34,11.00
2013,04,02,11,35,11.00
2013,04,02,11,36,11.00
2013,04,02,11,37,11.00
2013,04,02,11,38,11.00
2013,04,02,11,39,11.00
2013,04,02,11,40,11.00
2013,04,02,11,41,11.10
2013,04,02,11,42,11.10
2013,04,02,11,43,11.10
2013,04,02,11,44,11.10
2013,04,02,11,45,11.00
2013,04,02,11,46,11.00
2013,04,02,11,47,11.00
2013,04,02,11,48,10.90
2013,04,02,11,49,10.90
2013,04,02,11,50,10.80
2013,04,02,11,51,10.80
2013,04,02,11,52,10.80
2013,04,02,11,53,10.70
2013,04,02,11,54,10.70
2013,04,02,11,55,10.70
2013,04,02,11,56,10.60
2013,04,02,11,57,10.60
2013,04,02,11,58,10.60
2013,04,02,11,59,10.60
2013,04,02,12,00,10.60
2013,04,02,12,01,10.60
2013,04,02,12,02,10.60
2013,04,02,12,03,10.60
2013,04,02,12,04,10.60
2013,04,02,12,05,10.60
2013,04,02,12,06,10.60
2013,04,02,12,07,10.70
2013,04,02,12,08,10.70
2013,04,02,12,09,10.70
2013,04,02,12,10,10.80
2013,04,02,12,11,10.80
2013,04,02,12,12,10.90
2013,04,02,12,13,10.90
2013,04,02,12,14,10.90
2013,04,02,12,15,11.00
2013,04,02,12,16,11.10
2013,04,02,12,17,11.10
2013,04,02,12,18,11.20
2013,04,02,12,19,11.30
2013,04,02,12,20,11.40
2013,04,02,12,21,11.50
2013,04,02,12,22,11.60
2013,04,02,12,23,11.70
2013,04,02,12,24,11.70
2013,04,02,12,25,11.80
2013,04,02,12,26,11.80
2013,04,02,12,27,11.80
2013,04,02,12,28,11.90
2013,04,02,12,29,11.90
2013,04,02,12,30,11.90
2013,04,02,12,31,11.90
2013,04,02,12,32,11.80
2013,04,02,12,33,11.80
2013,04,02,12,34,11.80
2013,04,02,12,35,11.80
2013,04,02,12,36,11.80
2013,04,02,12,37,11.80
2013,04,02,12,38,11.80
2013,04,02,12,39,11.80
2013,04,02,12,40,11.70
2013,04,02,12,41,11.70
2013,04,02,12,42,11.70
2013,04,02,12,43,11.70
2013,04,02,12,44,11.70
2013,04,02,12,45,11.70
2013,04,02,12,46,11.70
2013,04,02,12,47,11.70
2013,04,02,12,48,11.70
2013,04,02,12,49,11.70
2013,04,02,12,50,11.70
2013,04,02,12,51,11.60
2013,04,02,12,52,11.60
2013,04,02,12,53,11.60
2013,04,02,12,54,11.50
2013,04,02,12,55,11.60
2013,04,02,12,56,11.60
2013,04,02,12,57,11.60
2013,04,02,12,58,11.60
2013,04,02,12,59,11.60
2013,04,02,13,00,11.60
2013,04,02,13,01,11.60
2013,04,02,13,02,11.60
2013,04,02,13,03,11.70
2013,04,02,13,04,11.70
2013,04,02,13,05,11.70
2013,04,02,13,06,11.70
2013,04,02,13,07,11.80
2013,04,02,13,08,11.80
2013,04,02,13,09,11.80
2013,04,02,13,10,11.80
2013,04,02,13,11,11.70
2013,04,02,13,12,11.70
2013,04,02,13,13,11.70
2013,04,02,13,14,11.60
2013,04,02,13,15,11.60
2013,04,02,13,16,11.50
2013,04,02,13,17,11.50
2013,04,02,13,18,11.50
2013,04,02,13,19,11.50
2013,04,02,13,20,11.50
2013,04,02,13,21,11.50
2013,04,02,13,22,11.50
2013,04,02,13,23,11.50
2013,04,02,13,24,11.60
2013,04,02,13,25,11.60
2013,04,02,13,26,11.70
2013,04,02,13,27,11.70
2013,04,02,13,28,11.70
2013,04,02,13,29,11.70
2013,04,02,13,30,11.70
2013,04,02,13,31,11.70
2013,04,02,13,32,11.70
2013,04,02,13,33,11.70
2013,04,02,13,34,11.80
2013,04,02,13,35,11.70
2013,04,02,13,36,11.70
2013,04,02,13,37,11.70
2013,04,02,13,38,11.70
2013,04,02,13,39,11.70
2013,04,02,13,40,11.70
2013,04,02,13,41,11.70
2013,04,02,13,42,11.80
2013,04,02,13,43,11.80
2013,04,02,13,44,11.90
2013,04,02,13,45,11.90
2013,04,02,13,46,11.90
2013,04,02,13,47,11.90
2013,04,02,13,48,11.90
2013,04,02,13,49,11.90
2013,04,02,13,50,11.90
2013,04,02,13,51,11.90
2013,04,02,13,52,12.00
2013,04,02,13,53,12.00
2013,04,02,13,54,12.10
2013,04,02,13,55,12.20
2013,04,02,13,56,12.20
2013,04,02,13,57,12.30
2013,04,02,13,58,12.30
2013,04,02,13,59,12.30
2013,04,02,14,00,12.30
2013,04,02,14,01,12.30
2013,04,02,14,02,12.20
2013,04,02,14,03,12.10
2013,04,02,14,04,12.10
2013,04,02,14,05,12.20
2013,04,02,14,06,12.30
2013,04,02,14,07,12.30
2013,04,02,14,08,12.30
2013,04,02,14,09,12.40
2013,04,02,14,10,12.40
2013,04,02,14,11,12.40
2013,04,02,14,12,12.30
2013,04,02,14,13,12.30
2013,04,02,14,14,12.20
2013,04,02,14,15,12.10
2013,04,02,14,16,12.10
2013,04,02,14,17,12.20
2013,04,02,14,18,12.20
2013,04,02,14,19,12.30
2013,04,02,14,20,12.30
2013,04,02,14,21,12.40
2013,04,02,14,22,12.40
2013,04,02,14,23,12.50
2013,04,02,14,24,12.50
2013,04,02,14,25,12.50
2013,04,02,14,26,12.50
2013,04,02,14,27,12.40
2013,04,02,14,28,12.40
2013,04,02,14,29,12.30
2013,04,02,14,30,12.30
2013,04,02,14,31,12.30
2013,04,02,14,32,12.30
2013,04,02,14,33,12.30
2013,04,02,14,34,12.30
2013,04,02,14,35,12.30
2013,04,02,14,36,12.30
2013,04,02,14,37,12.40
2013,04,02,14,38,12.40
2013,04,02,14,39,12.50
2013,04,02,14,40,12.50
2013,04,02,14,41,12.60
2013,04,02,14,42,12.50
2013,04,02,14,43,12.50
2013,04,02,14,44,12.50
2013,04,02,14,45,12.50
2013,04,02,14,46,12.40
2013,04,02,14,47,12.40
2013,04,02,14,48,12.40
2013,04,02,14,49,12.40
2013,04,02,14,50,12.40
2013,04,02,14,51,12.40
2013,04,02,14,52,12.40
2013,04,02,14,53,12.40
2013,04,02,14,54,12.40
2013,04,02,14,55,12.40
2013,04,02,14,56,12.40
2013,04,02,14,57,12.40
2013,04,02,14,58,12.50
2013,04,02,14,59,12.50
2013,04,02,15,00,12.40
2013,04,02,15,01,12.40
2013,04,02,15,02,12.50
2013,04,02,15,03,12.50
2013,04,02,15,04,12.60
2013,04,02,15,05,12.60
2013,04,02,15,06,12.60
2013,04,02,15,07,12.70
2013,04,02,15,08,12.60
2013,04,02,15,09,12.60
2013,04,02,15,10,12.50
2013,04,02,15,11,12.50
2013,04,02,15,12,12.40
2013,04,02,15,13,12.40
2013,04,02,15,14,12.40
2013,04,02,15,15,12.40
2013,04,02,15,16,12.50
2013,04,02,15,17,12.60
2013,04,02,15,18,12.60
2013,04,02,15,19,12.70
2013,04,02,15,20,12.70
2013,04,02,15,21,12.70
2013,04,02,15,22,12.80
2013,04,02,15,23,12.80
2013,04,02,15,24,12.80
2013,04,02,15,25,12.80
2013,04,02,15,26,12.80
2013,04,02,15,27,12.70
2013,04,02,15,28,12.70
2013,04,02,15,29,12.60
2013,04,02,15,30,12.60
2013,04,02,15,31,12.60
2013,04,02,15,32,12.50
2013,04,02,15,33,12.50
2013,04,02,15,34,12.50
2013,04,02,15,35,12.50
2013,04,02,15,36,12.50
2013,04,02,15,37,12.40
2013,04,02,15,38,12.40
2013,04,02,15,39,12.40
2013,04,02,15,40,12.30
2013,04,02,15,41,12.30
2013,04,02,15,42,12.30
2013,04,02,15,43,12.30
2013,04,02,15,44,12.30
2013,04,02,15,45,12.30
2013,04,02,15,46,12.30
2013,04,02,15,47,12.30
2013,04,02,15,48,12.30
2013,04,02,15,49,12.30
2013,04,02,15,50,12.30
2013,04,02,15,51,12.30
2013,04,02,15,52,12.30
2013,04,02,15,53,12.30
2013,04,02,15,54,12.30
2013,04,02,15,55,12.30
2013,04,02,15,56,12.30
2013,04,02,15,57,12.30
2013,04,02,15,58,12.40
2013,04,02,15,59,12.40
2013,04,02,16,00,12.40
2013,04,02,16,01,12.40
2013,04,02,16,02,12.40
2013,04,02,16,03,12.40
2013,04,02,16,04,12.30
2013,04,02,16,05,12.30
2013,04,02,16,06,12.30
2013,04,02,16,07,12.30
2013,04,02,16,08,12.30
2013,04,02,16,09,12.30
2013,04,02,16,10,12.20
2013,04,02,16,11,12.20
2013,04,02,16,12,12.20
2013,04,02,16,13,12.20
2013,04,02,16,14,12.20
2013,04,02,16,15,12.10
2013,04,02,16,16,12.10
2013,04,02,16,17,12.10
2013,04,02,16,18,12.00
2013,04,02,16,19,12.00
2013,04,02,16,20,12.00
2013,04,02,16,21,12.10
2013,04,02,16,22,12.10
2013,04,02,16,23,12.00
2013,04,02,16,24,12.00
2013,04,02,16,25,11.90
2013,04,02,16,26,11.90
2013,04,02,16,27,11.90
2013,04,02,16,28,11.90
2013,04,02,16,29,12.00
2013,04,02,16,30,12.00
2013,04,02,16,31,12.00
2013,04,02,16,32,12.00
2013,04,02,16,33,11.90
2013,04,02,16,34,11.90
2013,04,02,16,35,11.90
2013,04,02,16,36,11.90
2013,04,02,16,37,12.00
2013,04,02,16,38,12.00
2013,04,02,16,39,12.00
2013,04,02,16,40,12.00
2013,04,02,16,41,12.00
2013,04,02,16,42,12.10
2013,04,02,16,43,12.10
2013,04,02,16,44,12.00
2013,04,02,16,45,12.00
2013,04,02,16,46,12.00
2013,04,02,16,47,12.00
2013,04,02,16,48,12.00
2013,04,02,16,49,11.90
2013,04,02,16,50,11.90
2013,04,02,16,51,12.00
2013,04,02,16,52,12.00
2013,04,02,16,53,12.00
2013,04,02,16,54,11.90
2013,04,02,16,55,11.90
2013,04,02,16,56,11.90
2013,04,02,16,57,11.90
2013,04,02,16,58,11.80
2013,04,02,16,59,11.80
2013,04,02,17,00,11.80
2013,04,02,17,01,11.80
2013,04,02,17,02,11.80
2013,04,02,17,03,11.80
2013,04,02,17,04,11.80
2013,04,02,17,05,11.80
2013,04,02,17,06,11.80
2013,04,02,17,07,11.80
2013,04,02,17,08,11.80
2013,04,02,17,09,11.80
2013,04,02,17,10,11.80
2013,04,02,17,11,11.70
2013,04,02,17,12,11.70
2013,04,02,17,13,11.70
2013,04,02,17,14,11.70
2013,04,02,17,15,11.70
2013,04,02,17,16,11.60
2013,04,02,17,17,11.50
2013,04,02,17,18,11.40
2013,04,02,17,19,11.40
2013,04,02,17,20,11.30
2013,04,02,17,21,11.20
2013,04,02,17,22,11.10
2013,04,02,17,23,11.00
2013,04,02,17,24,10.90
2013,04,02,17,25,10.90
2013,04,02,17,26,10.90
2013,04,02,17,27,10.90
2013,04,02,17,28,10.90
2013,04,02,17,29,10.90
2013,04,02,17,30,10.80
2013,04,02,17,31,10.80
2013,04,02,17,32,10.80
2013,04,02,17,33,10.80
2013,04,02,17,34,10.80
2013,04,02,17,35,10.80
2013,04,02,17,36,10.80
2013,04,02,17,37,10.70
2013,04,02,17,38,10.70
2013,04,02,17,39,10.70
2013,04,02,17,40,10.70
2013,04,02,17,41,10.70
2013,04,02,17,42,10.70
2013,04,02,17,43,10.60
2013,04,02,17,44,10.60
2013,04,02,17,45,10.60